Regional Weather Roundup
Issued by NWS

Home | Current Version | Previous Version | Text Only | Print | Product List | Glossary Off
Versions: 1 2 3 4 5 6 7 8 9 10 11 12 13 14 15 16 17 18 19 20 21 22 23 24 25 26 27 28 29 30 31 32 33 34 35 36 37 38 39 40 41 42 43 44 45 46 47 48 49 50

000
ASUS45 KBOU 010007
RWRCO

WEATHER ROUNDUP FOR COLORADO
NATIONAL WEATHER SERVICE DENVER/BOULDER CO
600 PM MDT SUN AUG 31 2014

NOTE: "FAIR" INDICATES FEW OR NO CLOUDS BELOW 12000 FEET WITH NO
SIGNIFICANT WEATHER AND/OR OBSTRUCTIONS TO VISIBILITY.

COZ001>005-013-030-031-010100-
...NORTHWEST COLORADO...

CITY           SKY/WX    TMP DP  RH WIND       PRES   REMARKS
CRAIG          MOSUNNY   70  43  37 NW12      30.02F
HAYDEN         MOSUNNY   66  41  39 N5        30.05R
MEEKER         MOSUNNY   74  34  23 NW12G24   30.01R
MOUNT WERNER   NOT AVBL
STEAMBOAT SPGS MOSUNNY   64  42  44 NW5       30.07R
WALDEN         SUNNY     55  37  50 W13       30.11F
$$

COZ006>008-011-010100-
...WEST CENTRAL VALLEYS...

CITY           SKY/WX    TMP DP  RH WIND       PRES   REMARKS
GRAND JUNCTION SUNNY     85  30  13 W18G28    29.87S
MONTROSE       MOSUNNY   86  31  13 W17G28    29.95S
EAGLE          MOSUNNY   73  43  33 NW13G24   30.00R
RIFLE          PTSUNNY   77  42  28 NW5       29.93R
DELTA          MOSUNNY   90  28  11 W21G28    29.89
NUCLA          MOSUNNY   84  30  14 W18       30.00S
$$

COZ017>023-064>068-010100-
...SOUTHWEST COLORADO...

CITY           SKY/WX    TMP DP  RH WIND       PRES   REMARKS
DURANGO        MOSUNNY   82  32  16 W21G26    30.05F
CORTEZ         MOSUNNY   86  33  15 W14G20    30.00S
PAGOSA SPRINGS PTSUNNY   78  22  12 SW15G35   30.13S
TELLURIDE      MOSUNNY   70  28  21 SW14G20   30.23F
WOLF CREEK PAS MOSUNNY   54  27  35 SW39G55   30.41F
$$

COZ009-010-012-014-032>034-037-058>063-010100-
...CENTRAL COLORADO...

CITY           SKY/WX    TMP DP  RH WIND       PRES   REMARKS
ASPEN          MOSUNNY   73  27  18 NW13G30   30.07S
BUENA VISTA    PTSUNNY   69  32  24 SW15      30.11S
COPPER MTN     PTSUNNY   54  19  26 W28G46    30.36R
BERTHOUD PASS  TSTM      36  34  93 NW29G54   30.38S
COTTONWOOD PAS PTSUNNY   61  30  31 W17G33    30.24R
GUNNISON       MOSUNNY   70  36  28 W8        30.11S
KREMMLING      MOSUNNY   68  39  34 W12G17    30.07R
LEADVILLE      MOSUNNY   59  25  27 W12G23    30.21R
MONARCH PASS   PTSUNNY   52  32  46 W39G47    30.48F
SALIDA         PTSUNNY   70  38  30 N12G22    30.15S
SUNLIGHT       MOSUNNY   59  37  44 CALM      30.32R
WILKERSON PASS NOT AVBL
$$

COZ069>075-010100-
...SAN LUIS VALLEY/SANGRE DE CRISTO MOUNTAINS...

CITY           SKY/WX    TMP DP  RH WIND       PRES   REMARKS
ALAMOSA        SUNNY     78  30  17 W20G29    30.08S
LA VETA PASS   NOT AVBL
SAGUACHE       NOT AVBL
$$

COZ035-036-038>040-010100-
...NORTHERN COLORADO FRONT RANGE...

CITY           SKY/WX    TMP DP  RH WIND       PRES   REMARKS
DENVER INTL AP PTSUNNY   67  50  54 E12       29.93R
DMNS CITY PARK   N/A     66  51  60 W3G9      29.92S
AURORA         PTSUNNY   67  49  53 E9        29.95R
FRONT RANGE AP NOT AVBL
ERIE MUNI ARPT PTSUNNY   67  51  55 CALM      29.90F
BOULDER MUN AP PTSUNNY   66  52  59 N3        29.93S
CENTENNIAL     PTSUNNY   68  48  48 NE7       29.96R
BROOMFIELD     PTSUNNY   64  52  63 SE3       29.95R
FORT COLLINS   PTSUNNY   73  52  46 S9        29.90S
LONGMONT       PTSUNNY   68  52  56 CALM      29.93S
$$

COZ041-046-047-076>085-087-088-010100-
...PIKES PEAK/PALMER DIVIDE AND SOUTHERN FOOTHILLS...

CITY           SKY/WX    TMP DP  RH WIND       PRES   REMARKS
COLO. SPRINGS  MOSUNNY   82  42  24 S6        29.95S
A. F. ACADEMY  MOSUNNY   79  32  18 SW24G33   29.96R
ELLICOTT       MOSUNNY   78  46  32 E13       29.93S
FALCON         MOSUNNY   76  44  31 CALM      30.01R
FORT CARSON    MOSUNNY   79  48  33 E8        29.91S
LIMON          PTSUNNY   73  48  41 E17       29.92R
MONUMENT HILL  PTSUNNY   68  46  45 E13G20    30.00S
TRINIDAD       SUNNY     88  31  13 W20G29    29.90S
$$

COZ042>045-048>051-090-091-010100-
...NORTHEAST COLORADO...

CITY           SKY/WX    TMP DP  RH WIND       PRES   REMARKS
GREELEY ARPT   MOSUNNY   73  48  40 S5        29.90R
AKRON          PTSUNNY   72  46  39 NW8       29.91R
BURLINGTON     PTSUNNY   75  49  39 E13       29.85F
WRAY             N/A     74  52  46 SE7       29.78F
STERLING       PTSUNNY   72  59  64 CALM      29.84R
HOLYOKE        PTSUNNY   72  54  53 NE5       29.85S
FORT MORGAN    PTSUNNY   75  50  41 SE8       29.89S
$$

COZ086-089-092>099-010100-
...SOUTHEAST COLORADO...

CITY           SKY/WX    TMP DP  RH WIND       PRES   REMARKS
PUEBLO         PTSUNNY   87  46  24 NE15      29.82R
LA JUNTA       PTSUNNY   81  51  35 NE22G31   29.80R
LAMAR          MOSUNNY   80  54  40 NE23      29.76R
SPRINGFIELD      N/A     83  55  38 NE24G30   29.76S
$$



USA.gov is the U.S. government's official web portal to all federal, state and local government web resources and services.